User: anonymous   Login
Location: Saint-Denis
(20.8800°S, 55.4481°E)
Time: 06:20:13
(UTC+04:00)
Language:

UKube-1 - Orbit

View from above orbital plane
View from above orbital plane
View from above satellite
View from above satellite

Ground track
Ground track

The orbit data is extracted from the following two-line orbital elements,

1 40074U 14037F   24111.30924334  .00016635  00000-0  16177-2 0  9992
2 40074  98.3415  37.7339 0002294 259.9584 100.1374 14.92642520530142
Epoch (UTC): 20 April 2024 07:25:18
Eccentricity: 0.0002294
inclination: 98.3415°
perigee height: 588 km
apogee height: 591 km
right ascension of ascending node: 37.7339°
argument of perigee: 259.9584°
revolutions per day: 14.92642520
mean anomaly at epoch: 100.1374°
orbit number at epoch: 53014

The dashed part of the orbit path shows where the satellite is in the earth's shadow,  

DLR